Regional Weather Roundup
Issued by NWS

Home | Current Version | Previous Version | Text Only | Print | Product List | Glossary On
Versions: 1 2 3 4 5 6 7 8 9 10 11 12 13 14 15 16 17 18 19 20 21 22 23 24 25 26 27
000
ASCA42 TJSJ 201910
RWRPR
PUERTO RICO/U.S. VIRGIN ISLANDS HOURLY WEATHER ROUNDUP
NATIONAL WEATHER SERVICE SAN JUAN PR
300 PM AST FRI APR 20 2018

PRZ001>002-007>008-010-202000-
PUERTO RICO

CITY           SKY/WX    TMP DP  RH WIND       PRES   REMARKS
SAN JUAN LMM   MOSUNNY   82  73  74 E22G31    30.03F
AGUADILLA      MOSUNNY   82  72  69 E17G26    30.05F
CEIBA          PTSUNNY  N/A N/A N/A E14G22    30.07
$$

VIZ001>002-202000-
U.S. VIRGIN ISLANDS

CITY           SKY/WX    TMP DP  RH WIND       PRES   REMARKS
CHARLOTTE AMA  MOSUNNY   84  72  65 SE16      30.04
CHRISTIANSTED  MOSUNNY   86  72  62 E20G25    30.04F HX  92
$$

HOURLY WEATHER ROUNDUP FOR THE NEWS MEDIA

CITY           SKY/WX    TMP DP  RH WIND       PRES   REMARKS
ORLANDO        FAIR      83  66  56 N16       30.11F
NEW YORK       FAIR      51  25  36 W20G28    30.18S
NEWARK         FAIR      52  24  33 NW17G24   30.20R
CHICAGO        PTSUNNY   58  17  20 CALM      30.47F
HARTFORD       PTSUNNY   53  27  36 NW10G20   30.03S
BOSTON         FAIR      52  27  38 NW17G26   30.04R
DALLAS         PTSUNNY   64  39  39 E15       30.21F
PHILADELPHIA   FAIR      52  24  33 NW15G24   30.24F
LOS ANGELES    FAIR      69  46  43 VRB5      30.09F
WASHINGTON DC  FAIR      58  25  28 NW14      30.28F



USA.gov is the U.S. government's official web portal to all federal, state and local government web resources and services.